Time,TemperatureF,DewpointF,PressureIn,WindDirection,WindDirectionDegrees,WindSpeedMPH,WindSpeedGustMPH,Humidity,HourlyPrecipIn,Conditions,Clouds,dailyrainin,SoftwareType,DateUTC
2013-03-02 00:01:00,35.6,32.0,29.98,NW,321,0.0,1.0,85,0.00,,,0.00,weatherlink.com 1.10,2013-03-02 05:01:00,
2013-03-02 00:16:00,35.6,32.0,29.98,NW,321,0.0,0.0,86,0.00,,,0.00,weatherlink.com 1.10,2013-03-02 05:16:00,
2013-03-02 00:31:00,35.5,31.0,29.98,WNW,299,0.0,2.0,84,0.00,,,0.00,weatherlink.com 1.10,2013-03-02 05:31:00,
2013-03-02 00:46:00,35.7,31.0,29.98,WNW,300,0.0,1.0,84,0.00,,,0.00,weatherlink.com 1.10,2013-03-02 05:46:00,
2013-03-02 01:16:00,35.9,31.0,29.98,WNW,300,0.0,0.0,83,0.00,,,0.00,weatherlink.com 1.10,2013-03-02 06:16:00,
2013-03-02 01:31:00,36.0,31.0,29.98,WNW,299,0.0,2.0,83,0.00,,,0.00,weatherlink.com 1.10,2013-03-02 06:31:00,
2013-03-02 01:46:00,35.8,31.0,29.98,WNW,299,0.0,0.0,83,0.00,,,0.00,weatherlink.com 1.10,2013-03-02 06:46:00,
2013-03-02 02:01:00,35.7,31.0,29.98,WNW,299,0.0,2.0,82,0.00,,,0.00,weatherlink.com 1.10,2013-03-02 07:01:00,
2013-03-02 02:16:00,35.6,30.0,29.98,WNW,301,0.0,1.0,81,0.00,,,0.00,weatherlink.com 1.10,2013-03-02 07:16:00,
2013-03-02 02:31:00,35.5,31.0,29.97,WNW,301,0.0,0.0,82,0.00,,,0.00,weatherlink.com 1.10,2013-03-02 07:31:00,
2013-03-02 02:46:00,35.3,30.0,29.97,WNW,301,0.0,2.0,82,0.00,,,0.00,weatherlink.com 1.10,2013-03-02 07:46:00,
2013-03-02 03:01:00,35.5,30.0,29.96,SW,234,0.0,3.0,81,0.00,,,0.00,weatherlink.com 1.10,2013-03-02 08:01:00,
2013-03-02 03:16:00,35.6,30.0,29.96,SW,234,0.0,1.0,81,0.00,,,0.00,weatherlink.com 1.10,2013-03-02 08:16:00,
2013-03-02 03:31:00,35.6,30.0,29.96,West,266,0.0,3.0,81,0.00,,,0.00,weatherlink.com 1.10,2013-03-02 08:31:00,
2013-03-02 03:46:00,35.6,31.0,29.96,West,266,0.0,0.0,82,0.00,,,0.00,weatherlink.com 1.10,2013-03-02 08:46:00,
2013-03-02 04:16:00,35.7,30.0,29.95,NW,322,0.0,1.0,81,0.00,,,0.00,weatherlink.com 1.10,2013-03-02 09:16:00,
2013-03-02 04:31:00,35.7,30.0,29.95,NW,322,0.0,1.0,81,0.00,,,0.00,weatherlink.com 1.10,2013-03-02 09:31:00,
2013-03-02 04:46:00,35.5,31.0,29.96,NW,323,0.0,0.0,82,0.00,,,0.00,weatherlink.com 1.10,2013-03-02 09:46:00,
2013-03-02 05:01:00,35.3,30.0,29.96,NW,323,0.0,2.0,82,0.00,,,0.00,weatherlink.com 1.10,2013-03-02 10:01:00,
2013-03-02 05:16:00,35.3,30.0,29.96,NW,323,0.0,3.0,81,0.00,,,0.00,weatherlink.com 1.10,2013-03-02 10:16:00,
2013-03-02 05:46:00,35.0,29.0,29.96,WNW,293,0.0,1.0,79,0.00,,,0.00,weatherlink.com 1.10,2013-03-02 10:46:00,
2013-03-02 06:01:00,35.0,29.0,29.97,WNW,293,0.0,3.0,79,0.00,,,0.00,weatherlink.com 1.10,2013-03-02 11:01:00,
2013-03-02 06:16:00,34.9,29.0,29.97,NW,321,0.0,5.0,78,0.00,,,0.00,weatherlink.com 1.10,2013-03-02 11:16:00,
2013-03-02 06:31:00,34.4,28.0,29.97,NW,318,0.0,4.0,76,0.00,,,0.00,weatherlink.com 1.10,2013-03-02 11:31:00,
2013-03-02 07:01:00,33.7,28.0,29.98,NW,323,0.0,0.0,78,0.00,,,0.00,weatherlink.com 1.10,2013-03-02 12:01:00,
2013-03-02 07:16:00,33.6,28.0,29.98,NW,324,0.0,0.0,79,0.00,,,0.00,weatherlink.com 1.10,2013-03-02 12:16:00,
2013-03-02 07:31:00,33.8,28.0,29.98,NW,323,0.0,1.0,79,0.00,,,0.00,weatherlink.com 1.10,2013-03-02 12:31:00,
2013-03-02 07:46:00,34.3,28.0,29.99,NW,323,0.0,1.0,79,0.00,,,0.00,weatherlink.com 1.10,2013-03-02 12:46:00,
2013-03-02 08:01:00,34.4,28.0,29.99,WNW,295,0.0,5.0,76,0.00,,,0.00,weatherlink.com 1.10,2013-03-02 13:01:00,
2013-03-02 08:32:00,35.1,27.0,30.00,NW,322,0.0,4.0,73,0.00,,,0.00,weatherlink.com 1.10,2013-03-02 13:32:00,
2013-03-02 08:46:00,35.6,27.0,30.00,South,176,0.0,5.0,72,0.00,,,0.00,weatherlink.com 1.10,2013-03-02 13:46:00,
2013-03-02 09:02:00,36.2,28.0,30.00,SW,216,0.0,1.0,71,0.00,,,0.00,weatherlink.com 1.10,2013-03-02 14:02:00,
2013-03-02 09:16:00,36.6,28.0,30.00,WSW,254,0.0,5.0,71,0.00,,,0.00,weatherlink.com 1.10,2013-03-02 14:16:00,
2013-03-02 09:32:00,36.6,28.0,30.00,West,263,0.0,4.0,71,0.00,,,0.00,weatherlink.com 1.10,2013-03-02 14:32:00,
2013-03-02 09:47:00,36.8,28.0,30.00,West,268,1.0,5.0,70,0.00,,,0.00,weatherlink.com 1.10,2013-03-02 14:47:00,
2013-03-02 10:02:00,36.7,27.0,30.00,NW,307,1.0,5.0,69,0.00,,,0.00,weatherlink.com 1.10,2013-03-02 15:02:00,
2013-03-02 10:32:00,36.7,27.0,30.01,NW,311,0.0,7.0,69,0.00,,,0.00,weatherlink.com 1.10,2013-03-02 15:32:00,
2013-03-02 10:47:00,37.0,27.0,30.01,NW,316,0.0,5.0,67,0.00,,,0.00,weatherlink.com 1.10,2013-03-02 15:47:00,
2013-03-02 11:17:00,37.5,27.0,30.01,NW,309,0.0,2.0,67,0.00,,,0.00,weatherlink.com 1.10,2013-03-02 16:17:00,
2013-03-02 11:32:00,37.5,27.0,30.01,NNW,338,2.0,5.0,67,0.00,,,0.00,weatherlink.com 1.10,2013-03-02 16:32:00,
2013-03-02 11:47:00,38.5,28.0,30.01,NW,315,1.0,3.0,65,0.00,,,0.00,weatherlink.com 1.10,2013-03-02 16:47:00,
2013-03-02 12:02:00,39.1,28.0,30.01,West,277,1.0,8.0,64,0.00,,,0.00,weatherlink.com 1.10,2013-03-02 17:02:00,
2013-03-02 12:17:00,39.3,28.0,30.01,NNW,335,0.0,6.0,63,0.00,,,0.00,weatherlink.com 1.10,2013-03-02 17:17:00,
2013-03-02 12:32:00,39.1,29.0,30.01,SSE,165,0.0,7.0,66,0.00,,,0.00,weatherlink.com 1.10,2013-03-02 17:32:00,
2013-03-02 12:47:00,39.0,29.0,30.00,NW,311,2.0,7.0,67,0.00,,,0.00,weatherlink.com 1.10,2013-03-02 17:47:00,
2013-03-02 13:04:00,39.8,29.0,30.00,NNW,340,3.0,5.0,66,0.00,,,0.00,weatherlink.com 1.10,2013-03-02 18:04:00,
2013-03-02 13:17:00,39.4,29.0,30.00,North,360,2.0,9.0,66,0.00,,,0.00,weatherlink.com 1.10,2013-03-02 18:17:00,
2013-03-02 13:32:00,38.7,29.0,30.00,NNW,334,5.0,6.0,67,0.00,,,0.00,weatherlink.com 1.10,2013-03-02 18:32:00,
2013-03-02 13:47:00,38.4,29.0,29.99,NW,320,0.0,6.0,69,0.00,,,0.00,weatherlink.com 1.10,2013-03-02 18:47:00,
2013-03-02 14:02:00,38.0,29.0,29.99,WSW,257,0.0,4.0,70,0.00,,,0.00,weatherlink.com 1.10,2013-03-02 19:02:00,
2013-03-02 14:17:00,39.0,30.0,29.99,WNW,290,2.0,5.0,69,0.00,,,0.00,weatherlink.com 1.10,2013-03-02 19:17:00,
2013-03-02 14:32:00,38.4,29.0,29.99,WNW,284,1.0,9.0,70,0.00,,,0.00,weatherlink.com 1.10,2013-03-02 19:32:00,
2013-03-02 14:47:00,38.3,29.0,29.99,WNW,296,1.0,6.0,70,0.00,,,0.00,weatherlink.com 1.10,2013-03-02 19:47:00,
2013-03-02 15:02:00,38.3,29.0,29.99,NNW,344,0.0,10.0,70,0.00,,,0.00,weatherlink.com 1.10,2013-03-02 20:02:00,
2013-03-02 15:17:00,37.8,29.0,29.99,WNW,303,0.0,8.0,71,0.00,,,0.00,weatherlink.com 1.10,2013-03-02 20:17:00,
2013-03-02 15:32:00,37.6,29.0,30.00,NW,321,3.0,5.0,72,0.00,,,0.00,weatherlink.com 1.10,2013-03-02 20:32:00,
2013-03-02 15:47:00,37.7,29.0,30.00,West,269,0.0,7.0,72,0.00,,,0.00,weatherlink.com 1.10,2013-03-02 20:47:00,
2013-03-02 16:17:00,37.7,29.0,30.00,NNW,329,4.0,5.0,71,0.00,,,0.00,weatherlink.com 1.10,2013-03-02 21:17:00,
2013-03-02 16:32:00,37.9,29.0,30.00,WNW,287,0.0,5.0,69,0.00,,,0.00,weatherlink.com 1.10,2013-03-02 21:32:00,
2013-03-02 16:47:00,37.6,28.0,30.01,NW,306,0.0,6.0,69,0.00,,,0.00,weatherlink.com 1.10,2013-03-02 21:47:00,
2013-03-02 17:02:00,37.6,28.0,30.01,WNW,292,0.0,4.0,69,0.00,,,0.00,weatherlink.com 1.10,2013-03-02 22:02:00,
2013-03-02 17:17:00,37.1,28.0,30.01,NW,321,0.0,5.0,71,0.00,,,0.00,weatherlink.com 1.10,2013-03-02 22:17:00,
2013-03-02 17:32:00,36.4,28.0,30.02,NNW,336,7.0,7.0,71,0.00,,,0.00,weatherlink.com 1.10,2013-03-02 22:32:00,
2013-03-02 18:02:00,35.6,27.0,30.03,NW,317,0.0,3.0,72,0.00,,,0.00,weatherlink.com 1.10,2013-03-02 23:02:00,
2013-03-02 18:32:00,35.4,27.0,30.04,NW,323,1.0,3.0,72,0.00,,,0.00,weatherlink.com 1.10,2013-03-02 23:32:00,
2013-03-02 18:47:00,35.3,27.0,30.04,NW,323,1.0,3.0,73,0.00,,,0.00,weatherlink.com 1.10,2013-03-02 23:47:00,
2013-03-02 19:02:00,35.2,28.0,30.05,NW,322,0.0,2.0,75,0.00,,,0.00,weatherlink.com 1.10,2013-03-03 00:02:00,
2013-03-02 19:17:00,34.8,28.0,30.05,NW,322,0.0,3.0,75,0.00,,,0.00,weatherlink.com 1.10,2013-03-03 00:17:00,
2013-03-02 19:32:00,34.7,27.0,30.05,SSW,195,0.0,5.0,73,0.00,,,0.00,weatherlink.com 1.10,2013-03-03 00:32:00,
2013-03-02 19:47:00,34.5,26.0,30.05,NW,315,0.0,4.0,71,0.00,,,0.00,weatherlink.com 1.10,2013-03-03 00:47:00,
2013-03-02 20:02:00,34.4,26.0,30.05,NW,322,0.0,4.0,72,0.00,,,0.00,weatherlink.com 1.10,2013-03-03 01:02:00,
2013-03-02 20:17:00,34.4,26.0,30.05,NW,323,0.0,3.0,72,0.00,,,0.00,weatherlink.com 1.10,2013-03-03 01:17:00,
2013-03-02 20:32:00,34.4,27.0,30.05,NW,321,0.0,4.0,73,0.00,,,0.00,weatherlink.com 1.10,2013-03-03 01:32:00,
2013-03-02 20:47:00,34.4,26.0,30.06,NNW,342,0.0,6.0,72,0.00,,,0.00,weatherlink.com 1.10,2013-03-03 01:47:00,
2013-03-02 21:02:00,34.2,26.0,30.06,NNW,337,2.0,3.0,73,0.00,,,0.00,weatherlink.com 1.10,2013-03-03 02:02:00,
2013-03-02 21:32:00,34.1,26.0,30.07,NW,314,2.0,4.0,72,0.00,,,0.00,weatherlink.com 1.10,2013-03-03 02:32:00,
2013-03-02 21:47:00,34.0,26.0,30.07,NNW,331,0.0,7.0,71,0.00,,,0.00,weatherlink.com 1.10,2013-03-03 02:47:00,
2013-03-02 22:17:00,33.7,26.0,30.08,NW,311,0.0,3.0,72,0.00,,,0.00,weatherlink.com 1.10,2013-03-03 03:17:00,
2013-03-02 22:32:00,33.5,26.0,30.08,NW,311,0.0,3.0,73,0.00,,,0.00,weatherlink.com 1.10,2013-03-03 03:32:00,
2013-03-02 22:47:00,33.4,25.0,30.08,NNW,336,4.0,7.0,72,0.00,,,0.00,weatherlink.com 1.10,2013-03-03 03:47:00,
2013-03-02 23:02:00,33.0,25.0,30.08,NW,326,1.0,6.0,72,0.00,,,0.00,weatherlink.com 1.10,2013-03-03 04:02:00,
2013-03-02 23:17:00,32.8,25.0,30.07,NW,313,0.0,3.0,74,0.00,,,0.00,weatherlink.com 1.10,2013-03-03 04:17:00,
2013-03-02 23:33:00,32.5,25.0,30.07,NW,310,0.0,5.0,75,0.00,,,0.00,weatherlink.com 1.10,2013-03-03 04:33:00,
2013-03-02 23:48:00,32.4,25.0,30.07,NW,315,0.0,3.0,75,0.00,,,0.00,weatherlink.com 1.10,2013-03-03 04:48:00,